When you browse on this site, cookies collect data to enhance your experience and personalize the content and advertising you see.
Visit our Privacy Policy to learn more. By continuing to use the site, you agree to this use of cookies and data.
  • In Österreich
  • Länderverzeichnis
  • Für 7 Tage
  • Wassertemperatur
  • Satellitenkarten
  • Wetterkarte
  • News
  • Widgets
  • user-avatar
    Anmelden

    Stündliche Wetter Ali Sabieh

    Heute, 18 November, Sonntag

    Zeit Temperatur Niederschläge Wind Luftdruck Luftfeuchtigkeit
    00:00 +24°C° 0 mm 2 m/S 700 mmHg 66%
    01:00 +24°C° 0 mm 2 m/S 699 mmHg 68%
    02:00 +23°C° 0 mm 2 m/S 699 mmHg 70%
    03:00 +23°C° 0 mm 2 m/S 699 mmHg 72%
    04:00 +23°C° 0 mm 2 m/S 699 mmHg 74%
    05:00 +21°C° 0 mm 2 m/S 699 mmHg 76%
    06:00 +21°C° 0 mm 2 m/S 699 mmHg 77%
    07:00 +23°C° 0 mm 2 m/S 700 mmHg 70%
    08:00 +24°C° 0 mm 2 m/S 700 mmHg 64%
    09:00 +26°C° 0 mm 3 m/S 700 mmHg 55%
    10:00 +27°C° 0 mm 3 m/S 700 mmHg 50%
    11:00 +28°C° 0 mm 4 m/S 700 mmHg 44%
    12:00 +29°C° 0 mm 4 m/S 700 mmHg 38%
    13:00 +30°C° 0 mm 4 m/S 700 mmHg 37%
    14:00 +30°C° 0 mm 5 m/S 699 mmHg 36%
    15:00 +30°C° 0 mm 5 m/S 699 mmHg 38%
    16:00 +29°C° 0 mm 5 m/S 699 mmHg 41%
    17:00 +28°C° 0 mm 5 m/S 699 mmHg 44%
    18:00 +28°C° 0 mm 5 m/S 699 mmHg 48%
    19:00 +27°C° 0 mm 4 m/S 699 mmHg 51%
    20:00 +26°C° 0 mm 4 m/S 699 mmHg 55%
    21:00 +26°C° 0 mm 3 m/S 699 mmHg 59%
    22:00 +25°C° 0 mm 3 m/S 699 mmHg 61%
    23:00 +25°C° 0 mm 3 m/S 699 mmHg 63%

    Morgen, 19 November, Montag

    Zeit Temperatur Niederschläge Wind Luftdruck Luftfeuchtigkeit
    00:00 +24°C° 0 mm 2 m/S 699 mmHg 66%
    01:00 +24°C° 0 mm 2 m/S 699 mmHg 68%
    02:00 +24°C° 0 mm 2 m/S 699 mmHg 70%
    03:00 +23°C° 0 mm 2 m/S 699 mmHg 72%
    04:00 +23°C° 0 mm 2 m/S 699 mmHg 74%
    05:00 +23°C° 0 mm 2 m/S 699 mmHg 75%
    06:00 +21°C° 0 mm 2 m/S 699 mmHg 77%
    07:00 +22°C° 0 mm 3 m/S 700 mmHg 70%
    08:00 +25°C° 0 mm 3 m/S 700 mmHg 62%
    09:00 +26°C° 0 mm 4 m/S 700 mmHg 55%
    10:00 +27°C° 0 mm 4 m/S 700 mmHg 49%
    11:00 +29°C° 0 mm 5 m/S 700 mmHg 43%
    12:00 +30°C° 0 mm 6 m/S 700 mmHg 38%
    13:00 +30°C° 0 mm 6 m/S 700 mmHg 37%
    14:00 +30°C° 0 mm 6 m/S 699 mmHg 36%
    15:00 +32°C° 0 mm 7 m/S 699 mmHg 35%
    16:00 +30°C° 0 mm 6 m/S 699 mmHg 40%
    17:00 +29°C° 0 mm 6 m/S 699 mmHg 44%
    18:00 +28°C° 0 mm 6 m/S 699 mmHg 48%
    19:00 +27°C° 0 mm 5 m/S 699 mmHg 51%
    20:00 +26°C° 0 mm 4 m/S 699 mmHg 54%
    21:00 +26°C° 0 mm 4 m/S 700 mmHg 57%
    22:00 +25°C° 0 mm 3 m/S 700 mmHg 59%
    23:00 +25°C° 0 mm 3 m/S 699 mmHg 60%

    übermorgen, 20 November, Dienstag

    Zeit Temperatur Niederschläge Wind Luftdruck Luftfeuchtigkeit
    00:00 +25°C° 0 mm 2 m/S 699 mmHg 62%
    01:00 +24°C° 0 mm 2 m/S 699 mmHg 65%
    02:00 +24°C° 0 mm 2 m/S 699 mmHg 67%
    03:00 +23°C° 0 mm 2 m/S 698 mmHg 70%
    04:00 +23°C° 0 mm 2 m/S 698 mmHg 72%
    05:00 +21°C° 0 mm 2 m/S 698 mmHg 74%
    06:00 +21°C° 0 mm 2 m/S 699 mmHg 76%
    07:00 +23°C° 0 mm 2 m/S 699 mmHg 69%
    08:00 +24°C° 0 mm 3 m/S 700 mmHg 61%
    09:00 +25°C° 0 mm 4 m/S 701 mmHg 54%
    10:00 +27°C° 0 mm 4 m/S 701 mmHg 48%
    11:00 +28°C° 0 mm 5 m/S 700 mmHg 43%
    12:00 +30°C° 0 mm 5 m/S 700 mmHg 37%
    13:00 +30°C° 0 mm 6 m/S 700 mmHg 35%
    14:00 +30°C° 0 mm 6 m/S 699 mmHg 33%
    15:00 +32°C° 0 mm 6 m/S 699 mmHg 31%
    16:00 +30°C° 0 mm 6 m/S 699 mmHg 35%
    17:00 +29°C° 0 mm 6 m/S 699 mmHg 38%
    18:00 +28°C° 0 mm 5 m/S 699 mmHg 42%
    19:00 +27°C° 0 mm 5 m/S 699 mmHg 45%
    20:00 +27°C° 0 mm 4 m/S 700 mmHg 48%
    21:00 +26°C° 0 mm 3 m/S 700 mmHg 51%
    22:00 +26°C° 0 mm 3 m/S 700 mmHg 53%
    23:00 +25°C° 0 mm 3 m/S 700 mmHg 55%

    21 November, Mittwoch

    Zeit Temperatur Niederschläge Wind Luftdruck Luftfeuchtigkeit
    00:00 +25°C° 0 mm 2 m/S 700 mmHg 57%
    01:00 +24°C° 0 mm 2 m/S 699 mmHg 59%
    02:00 +24°C° 0 mm 2 m/S 699 mmHg 62%
    03:00 +23°C° 0 mm 2 m/S 698 mmHg 64%
    04:00 +23°C° 0 mm 1 m/S 699 mmHg 66%
    05:00 +23°C° 0 mm 1 m/S 699 mmHg 68%
    06:00 +22°C° 0 mm 1 m/S 699 mmHg 70%
    07:00 +24°C° 0 mm 2 m/S 700 mmHg 63%
    08:00 +25°C° 0 mm 3 m/S 700 mmHg 57%
    09:00 +26°C° 0 mm 3 m/S 701 mmHg 51%
    10:00 +27°C° 0 mm 4 m/S 701 mmHg 45%
    11:00 +29°C° 0 mm 4 m/S 700 mmHg 39%
    12:00 +30°C° 0 mm 5 m/S 700 mmHg 34%
    13:00 +30°C° 0 mm 6 m/S 700 mmHg 32%
    14:00 +32°C° 0 mm 6 m/S 699 mmHg 30%
    15:00 +32°C° 0 mm 7 m/S 698 mmHg 28%
    16:00 +30°C° 0 mm 6 m/S 698 mmHg 30%
    17:00 +29°C° 0 mm 6 m/S 699 mmHg 33%
    18:00 +28°C° 0 mm 6 m/S 699 mmHg 36%
    19:00 +27°C° 0 mm 5 m/S 699 mmHg 40%
    20:00 +27°C° 0 mm 4 m/S 700 mmHg 44%
    21:00 +26°C° 0 mm 4 m/S 700 mmHg 48%
    22:00 +25°C° 0 mm 3 m/S 700 mmHg 52%
    23:00 +25°C° 0 mm 3 m/S 700 mmHg 55%

    22 November, Donnerstag

    Zeit Temperatur Niederschläge Wind Luftdruck Luftfeuchtigkeit
    00:00 +24°C° 0 mm 2 m/S 699 mmHg 58%
    01:00 +24°C° 0 mm 2 m/S 699 mmHg 61%
    02:00 +23°C° 0 mm 2 m/S 698 mmHg 64%
    03:00 +23°C° 0 mm 2 m/S 698 mmHg 67%
    04:00 +23°C° 0 mm 2 m/S 698 mmHg 70%
    05:00 +21°C° 0 mm 2 m/S 699 mmHg 72%
    06:00 +21°C° 0 mm 2 m/S 699 mmHg 75%
    07:00 +23°C° 0 mm 2 m/S 700 mmHg 69%
    08:00 +24°C° 0 mm 3 m/S 700 mmHg 64%
    09:00 +25°C° 0 mm 4 m/S 701 mmHg 58%
    10:00 +27°C° 0 mm 5 m/S 701 mmHg 51%
    11:00 +28°C° 0 mm 5 m/S 700 mmHg 44%
    12:00 +30°C° 0 mm 6 m/S 700 mmHg 37%
    13:00 +30°C° 0 mm 6 m/S 699 mmHg 35%
    14:00 +30°C° 0 mm 7 m/S 699 mmHg 33%
    15:00 +32°C° 0 mm 7 m/S 698 mmHg 32%
    16:00 +29°C° 0 mm 7 m/S 698 mmHg 37%
    17:00 +28°C° 0 mm 7 m/S 698 mmHg 42%
    18:00 +27°C° 0 mm 7 m/S 698 mmHg 47%
    19:00 +26°C° 0 mm 6 m/S 699 mmHg 53%
    20:00 +26°C° 0 mm 5 m/S 699 mmHg 58%
    21:00 +25°C° 0 mm 5 m/S 700 mmHg 63%
    22:00 +23°C° 0 mm 5 m/S 700 mmHg 66%
    23:00 +23°C° 0 mm 4 m/S 699 mmHg 69%

    23 November, Freitag

    Zeit Temperatur Niederschläge Wind Luftdruck Luftfeuchtigkeit
    00:00 +23°C° 0 mm 4 m/S 699 mmHg 72%
    01:00 +22°C° 0 mm 4 m/S 699 mmHg 74%
    02:00 +22°C° 0 mm 4 m/S 698 mmHg 76%
    03:00 +22°C° 0 mm 4 m/S 698 mmHg 77%
    04:00 +22°C° 0 mm 4 m/S 698 mmHg 78%
    05:00 +22°C° 0 mm 4 m/S 699 mmHg 79%
    06:00 +22°C° 0 mm 4 m/S 699 mmHg 79%
    07:00 +23°C° 0 mm 5 m/S 700 mmHg 74%
    08:00 +23°C° 0 mm 5 m/S 700 mmHg 68%
    09:00 +24°C° 0 mm 6 m/S 701 mmHg 63%
    10:00 +27°C° 0 mm 6 m/S 700 mmHg 58%
    11:00 +28°C° 0 mm 6 m/S 700 mmHg 54%
    12:00 +29°C° 0 mm 7 m/S 699 mmHg 49%
    13:00 +29°C° 0 mm 7 m/S 699 mmHg 48%
    14:00 +29°C° 0 mm 7 m/S 698 mmHg 47%
    15:00 +29°C° 0 mm 7 m/S 698 mmHg 47%
    16:00 +28°C° 0 mm 7 m/S 698 mmHg 52%
    17:00 +27°C° 0 mm 7 m/S 698 mmHg 58%
    18:00 +26°C° 0 mm 7 m/S 698 mmHg 63%
    19:00 +26°C° 0 mm 7 m/S 699 mmHg 66%
    20:00 +24°C° 0 mm 6 m/S 699 mmHg 69%
    21:00 +24°C° 0 mm 6 m/S 700 mmHg 72%
    22:00 +23°C° 0 mm 6 m/S 699 mmHg 73%
    23:00 +23°C° 0 mm 5 m/S 699 mmHg 74%
    Mehr zeigen